Location: Unspecified
(0.0000°N, 0.0000°E)
Time: 18:56:34
(UTC+00:00)

Vanguard 3 - Pass Details

Date: 24 September 2023
Orbit: 507 x 3241 km, 33.3° (Epoch: 29 November)

Event Time Altitude Azimuth Distance (km) Brightness Sun altitude
Rises 02:38:11 0° 333° (NNW) 2,685 - -48.5°
Reaches altitude 10° 02:40:34 10° 351° (N) 1,935 - -47.9°
Maximum altitude 02:43:55 21° 42° (NE) 1,586 - -47.1°
Exits shadow 02:47:09 14° 83° (E) 2,281 9.9 -46.3°
Drops below altitude 10° 02:48:24 10° 91° (E) 2,684 10.4 -46.0°
Sets 02:52:26 0° 105° (ESE) 4,116 11.5 -45.0°
